Regional Weather Roundup
Issued by NWS

Home | Current Version | Previous Version | Text Only | Print | Product List | Glossary On
Versions: 1 2 3 4 5 6 7 8 9 10 11 12 13 14 15 16 17 18 19 20 21 22 23 24 25 26 27 28 29 30 31 32 33 34 35 36 37 38 39 40 41 42 43 44 45 46 47 48 49 50
000
ASUS43 KLMK 210110
RWRKY
KENTUCKY REGIONAL WEATHER ROUNDUP
NATIONAL WEATHER SERVICE LOUISVILLE KY
800 PM EST FRI JAN 20 2017

NOTE "FAIR" INDICATES FEW OR NO CLOUDS BELOW 12,000 FEET
WITH NO SIGNIFICANT WEATHER AND/OR OBSTRUCTIONS TO VISIBILITY.

KYZ001>023-026-027-061>063-070>075-210200-
WESTERN AND SOUTH CENTRAL KENTUCKY

CITY           SKY/WX    TMP DP  RH WIND       PRES   REMARKS
PADUCAH        PTCLDY    56  51  84 SE8       29.66S
HENDERSON      PTCLDY    55  48  76 S8        29.68S
OWENSBORO      CLOUDY    57  53  86 S6        29.71R
HOPKINSVILLE   CLOUDY    59  53  79 VRB6      29.72R
BOWLING GREEN  PTCLDY    58  51  78 CALM      29.74R
GLASGOW        CLOUDY    58  50  74 S3        29.74S
$$

KYZ024-025-028>034-038-045-046-053-210200-
NORTH CENTRAL KENTUCKY

CITY           SKY/WX    TMP DP  RH WIND       PRES   REMARKS
LOUISVILLE/SDF CLOUDY    56  48  74 SE6       29.72F
LOUISVILLE/LOU PTCLDY    58  49  72 SE3       29.73S
FORT KNOX      PTCLDY    54  51  89 E7        29.70F
$$

KYZ035>037-039>044-047>052-055>060-089>105-210200-
NORTHEAST KENTUCKY

CITY           SKY/WX    TMP DP  RH WIND       PRES   REMARKS
LEXINGTON      CLOUDY    55  46  71 SE5       29.78R
COVINGTON      CLOUDY    54  49  83 SE5       29.75S
FRANKFORT      PTCLDY    51  45  79 E3        29.75S
$$

KYZ054-064>069-076>088-106>120-210200-
SOUTHEAST KENTUCKY

CITY           SKY/WX    TMP DP  RH WIND       PRES   REMARKS
JACKSON        PTCLDY    58  48  69 CALM      29.81R
LONDON         CLOUDY    53  46  77 CALM      29.80R
SOMERSET       CLOUDY    52  46  82 CALM      29.81R
MIDDLESBORO    CLEAR     51  49  94 CALM      29.83R
MONTICELLO     PTCLDY    47  46  97 VRB3      29.81R
$$





USA.gov is the U.S. government's official web portal to all federal, state and local government web resources and services.